This demonstration page uses our WeatherBlox Daily Observations layout. Learn more.

Left ArrowRight Arrow

Hourly Observations for August 18, 2019

Temp ( °F °C ) Dew Point ( °F °C ) Humidity (%) Winds ( mph kmh ) Pressure ( in mb ) Visibility ( mi km ) Precip ( " mm )
12:56 am 00:56 Clear 79 26 73 23 84 84 SE 8 13 29.65 1004 10 16 0.00 0.00
1:56 am 01:56 Clear 79 26 73 23 84 84 SSE 10 17 29.63 1003 10 16 0.00 0.00
2:56 am 02:56 Clear 77 25 73 23 89 89 SSE 10 17 29.65 1004 10 16 0.00 0.00
3:56 am 03:56 Mostly Cloudy 77 25 73 23 89 89 SSE 13 20 29.61 1003 10 16 0.00 0.00
4:56 am 04:56 Partly Cloudy 75 24 66 19 74 74 NE 17 28 29.70 1006 10 16 0.00 0.00
5:56 am 05:56 Partly Cloudy 73 23 66 19 78 78 ESE 8 13 29.72 1006 10 16 0.00 0.00
6:56 am 06:56 Cloudy 73 23 66 19 78 78 E 14 22 29.75 1007 10 16 0.00 0.00
7:56 am 07:56 Cloudy 72 22 64 18 78 78 ESE 13 20 29.77 1008 10 16 0.00 0.00
8:56 am 08:56 Cloudy 70 21 64 18 83 83 ESE 9 15 29.79 1009 10 16 0.00 0.00
9:56 am 09:56 Cloudy 72 22 64 18 78 78 ESE 9 15 29.83 1010 10 16 0.00 0.00
10:56 am 10:56 Cloudy 75 24 64 18 69 69 SE 9 15 29.83 1010 10 16 0.00 0.00
11:22 am 11:22 Mostly Cloudy 77 25 66 19 69 69 VRB 7 11 29.84 1011 10 16 0.00 0.00
11:56 am 11:56 Partly Cloudy 79 26 66 19 65 65 SE 5 7 29.83 1010 10 16 0.00 0.00
12:56 pm 12:56 Partly Cloudy 82 28 66 19 58 58 SE 5 7 29.83 1010 10 16 0.00 0.00
12:57 pm 12:57 Mostly Cloudy N/A N/A N/A WNW 5 7 N/A 10 16 0.00 0.00
1:56 pm 13:56 Mostly Cloudy N/A N/A N/A N 7 11 N/A 10 16 0.00 0.00
2:56 pm 14:56 Mostly Cloudy 81 27 68 20 66 66 WNW 9 15 29.83 1010 10 16 0.00 0.00
3:56 pm 15:56 Partly Cloudy 77 25 68 20 74 74 NW 12 19 29.85 1011 10 16 0.00 0.00
4:56 pm 16:56 Partly Cloudy 75 24 66 19 74 74 NW 9 15 29.86 1011 10 16 0.00 0.00
5:56 pm 17:56 Mostly Cloudy 75 24 66 19 74 74 N 7 11 29.87 1012 10 16 0.00 0.00
6:56 pm 18:56 Cloudy 75 24 66 19 74 74 NNE 6 9 29.88 1012 10 16 0.00 0.00
7:56 pm 19:56 Mostly Cloudy 75 24 68 20 78 78 Calm 29.90 1013 10 16 0.00 0.00
8:56 pm 20:56 Mostly Cloudy 75 24 66 19 74 74 Calm 29.91 1013 10 16 0.00 0.00
9:56 pm 21:56 Mostly Cloudy 73 23 68 20 83 83 Calm 29.93 1013 10 16 0.00 0.00
10:56 pm 22:56 Partly Cloudy 72 22 68 20 88 88 Calm 29.93 1014 10 16 0.00 0.00
11:56 pm 23:56 Mostly Clear 72 22 66 19 83 83 Calm 29.94 1014 10 16 0.00 0.00

Powered by AerisWeather